Regional Weather Roundup
Issued by NWS State College, PA

Home | Current Version | Previous Version | Graphics & Text | Print | Product List | Glossary Off
Versions: 1 2 3 4 5 6 7 8 9 10 11 12 13 14 15 16 17 18 19 20 21 22 23 24 25 26 27 28 29 30 31 32 33 34 35 36 37 38 39 40 41 42 43 44 45 46 47 48 49 50

000
ASUS41 KCTP 241903
RWRCTP

REGIONAL WEATHER ROUNDUP
NATIONAL WEATHER SERVICE STATE COLLEGE PA
300 PM EDT SAT SEP 24 2016

Note: "fair" indicates few or no clouds below 12,000 feet with no
significant weather and/or obstructions to visibility.

* = STATION THAT DOES NOT REPORT PRECIPITATION /E.G. RAIN...SNOW...ETC/
    THUNDER OR FOG.

PAZ002>004-007>009-013>016-020>023-029>032-242000-
WESTERN PENNSYLVANIA

CITY           SKY/WX    TMP DP  RH WIND       PRES   REMARKS
ERIE           SUNNY     65  48  54 NE14      30.22F
MEADVILLE      SUNNY     67  46  47 N10       30.20F
FRANKLIN*        N/A     66  48  52 N10       30.19F
NEW CASTLE     FAIR      70  53  54 NW9       30.17F
BEAVER COUNTY  SUNNY     72  52  49 NE7       30.17F
BUTLER*        SUNNY     72  54  53 NW6       30.18F
PITTSBURGH INT MOSUNNY   72  55  55 NW8       30.16F
PITTSBURGH     CLOUDY    68  56  65 CALM      30.16F
INDIANA*       SUNNY     66  55  68 VRB5      30.19F
LATROBE        CLOUDY    64  57  77 N6        30.18F
WASHINGTON CO* PTSUNNY   72  61  68 NE8       30.16F
$$

PAZ004>006-010>012-017>019-024>028-033>037-041-042-045-046-049>053-242000-
CENTRAL PENNSYLVANIA

CITY           SKY/WX    TMP DP  RH WIND       PRES   REMARKS
BRADFORD       SUNNY     64  42  44 VRB7      30.20S
DUBOIS         SUNNY     68  44  42 N5        30.16F
CLEARFIELD     SUNNY     70  44  39 VRB3      30.16F
JOHNSTOWN      CLOUDY    64  56  75 NW10      30.17F
ALTOONA        PTSUNNY   67  54  63 NW9       30.16F
STATE COLLEGE  SUNNY     70  46  43 NE6       30.15F
WILLIAMSPORT   SUNNY     73  45  36 VRB6      30.12F
SELINSGROVE    SUNNY     74  41  30 NE10G18   30.13F
FT INDIANTOWN  SUNNY     72  50  46 VRB1      30.10F
CAPITAL CITY   MOSUNNY   74  47  38 NW8       30.10F
HARRISBURG     MOSUNNY   73  54  51 W8        30.09F
YORK           PTSUNNY   71  55  56 N9        30.11F
$$

PAZ038>040-043-044-047-048-054-055-060>062-067>071-242000-
EASTERN PENNSYLVANIA

CITY           SKY/WX    TMP DP  RH WIND       PRES   REMARKS
SCRANTON       SUNNY     67  45  45 N12       30.13F
MOUNT POCONO   SUNNY     63  43  48 NW5       30.13F
ALLENTOWN      SUNNY     74  44  34 NW10      30.08F
QUAKERTOWN*    PTCLDY    70  50  49 NW5       30.10F
READING        SUNNY     71  53  52 CALM      30.09F
LANCASTER      CLOUDY    68  58  70 NE9       30.11F
COATESVILLE    CLOUDY    64  55  72 N7        30.12F
POTTSTOWN      CLOUDY    67  54  63 VRB3      30.11F
BLUE BELL      PTSUNNY   68  54  60 NW3       30.09F
DOYLESTOWN     CLOUDY    71  53  52 VRB6      30.09F
WILLOW GROVE   NOT AVBL
NORTH PHILA    CLOUDY    69  54  58 VRB6      30.11F
PHILADELPHIA   PTSUNNY   70  54  56 VRB3      30.10F
$$



USA.gov is the U.S. government's official web portal to all federal, state and local government web resources and services.